Location: Augustenthal
(51.7167°N, 10.2833°E)
Time: 23:12:03
(UTC+00:00)

Cosmos 2297 Rocket - Pass Details

Date: 18 May 2021
Orbit: 838 x 845 km, 71.0° (Epoch: 24 June)

Event Time Altitude Azimuth Distance (km) Brightness Sun altitude
Rises 21:12:35 0° 329° (NNW) 3,414 7.4 -13.7°
Reaches altitude 10° 21:15:45 10° 346° (NNW) 2,477 5.9 -13.9°
Maximum altitude 21:19:51 20° 32° (NNE) 1,872 4.4 -14.2°
Drops below altitude 10° 21:23:56 10° 79° (ENE) 2,472 4.5 -14.5°
Enters shadow 21:27:03 - 96° (E) 3,396 5.0 -14.7°
